Previsão horária em Abbottabad

Hoje, 23 Janeiro, Sábado

Tempo Temperatura Precipitação Vento Pressão Humidade
00:00 +6°C° 0.2 mm 4 m/s 651 mmHg 71%
01:00 +5°C° 0.2 mm 4 m/s 651 mmHg 74%
02:00 +5°C° 0.2 mm 5 m/s 650 mmHg 77%
03:00 +5°C° 0.2 mm 4 m/s 650 mmHg 77%
04:00 +5°C° 0.2 mm 3 m/s 649 mmHg 77%
05:00 +6°C° 0.2 mm 2 m/s 649 mmHg 77%
06:00 +6°C° 0.3 mm 2 m/s 649 mmHg 78%
07:00 +6°C° 0.3 mm 2 m/s 649 mmHg 79%
08:00 +6°C° 0.3 mm 2 m/s 649 mmHg 80%
09:00 +6°C° 0.5 mm 2 m/s 650 mmHg 79%
10:00 +7°C° 0.5 mm 2 m/s 650 mmHg 78%
11:00 +7°C° 0.5 mm 2 m/s 650 mmHg 78%
12:00 +7°C° 0.3 mm 2 m/s 649 mmHg 77%
13:00 +8°C° 0.3 mm 1 m/s 649 mmHg 77%
14:00 +8°C° 0.3 mm 1 m/s 649 mmHg 77%
15:00 +8°C° 0.8 mm 1 m/s 649 mmHg 76%
16:00 +8°C° 0.8 mm 1 m/s 649 mmHg 76%
17:00 +8°C° 0.8 mm 1 m/s 649 mmHg 76%
18:00 +7°C° 0.2 mm 1 m/s 650 mmHg 77%
19:00 +6°C° 0.2 mm 1 m/s 650 mmHg 79%
20:00 +5°C° 0.2 mm 1 m/s 651 mmHg 80%
21:00 +5°C° 0 mm 1 m/s 651 mmHg 79%
22:00 +4°C° 0 mm 2 m/s 651 mmHg 78%
23:00 +4°C° 0 mm 2 m/s 651 mmHg 77%

Amanhã, 24 Janeiro, Domingo

Tempo Temperatura Precipitação Vento Pressão Humidade
00:00 +4°C° 0 mm 2 m/s 652 mmHg 74%
01:00 +3°C° 0 mm 2 m/s 652 mmHg 71%
02:00 +3°C° 0 mm 2 m/s 652 mmHg 69%
03:00 +3°C° 0 mm 2 m/s 652 mmHg 66%
04:00 +3°C° 0 mm 2 m/s 652 mmHg 64%
05:00 +3°C° 0 mm 2 m/s 652 mmHg 62%
06:00 +3°C° 0 mm 2 m/s 653 mmHg 61%
07:00 +3°C° 0 mm 2 m/s 654 mmHg 59%
08:00 +3°C° 0 mm 2 m/s 654 mmHg 58%
09:00 +6°C° 0 mm 2 m/s 655 mmHg 51%
10:00 +9°C° 0 mm 1 m/s 656 mmHg 44%
11:00 +11°C° 0 mm 1 m/s 657 mmHg 37%
12:00 +12°C° 0 mm 1 m/s 657 mmHg 35%
13:00 +13°C° 0 mm 1 m/s 657 mmHg 33%
14:00 +14°C° 0 mm 1 m/s 657 mmHg 30%
15:00 +12°C° 0 mm 1 m/s 656 mmHg 34%
16:00 +11°C° 0 mm 1 m/s 656 mmHg 39%
17:00 +10°C° 0 mm 1 m/s 656 mmHg 43%
18:00 +9°C° 0 mm 1 m/s 656 mmHg 45%
19:00 +7°C° 0 mm 2 m/s 656 mmHg 46%
20:00 +6°C° 0 mm 2 m/s 656 mmHg 48%
21:00 +6°C° 0 mm 2 m/s 656 mmHg 50%
22:00 +5°C° 0 mm 2 m/s 656 mmHg 51%
23:00 +4°C° 0 mm 3 m/s 656 mmHg 52%

Depois de amanhã, 25 Janeiro, Segunda-feira

Tempo Temperatura Precipitação Vento Pressão Humidade
00:00 +4°C° 0 mm 3 m/s 656 mmHg 51%
01:00 +3°C° 0 mm 3 m/s 656 mmHg 49%
02:00 +3°C° 0 mm 3 m/s 656 mmHg 47%
03:00 +3°C° 0 mm 3 m/s 656 mmHg 46%
04:00 +3°C° 0 mm 3 m/s 656 mmHg 45%
05:00 +3°C° 0 mm 3 m/s 656 mmHg 45%
06:00 +3°C° 0 mm 3 m/s 656 mmHg 45%
07:00 +3°C° 0 mm 3 m/s 656 mmHg 45%
08:00 +3°C° 0 mm 3 m/s 657 mmHg 45%
09:00 +7°C° 0 mm 3 m/s 657 mmHg 40%
10:00 +9°C° 0 mm 2 m/s 658 mmHg 35%
11:00 +13°C° 0 mm 2 m/s 659 mmHg 30%
12:00 +14°C° 0 mm 2 m/s 658 mmHg 29%
13:00 +14°C° 0 mm 2 m/s 658 mmHg 28%
14:00 +15°C° 0 mm 1 m/s 658 mmHg 27%
15:00 +14°C° 0 mm 1 m/s 657 mmHg 31%
16:00 +13°C° 0 mm 1 m/s 657 mmHg 35%
17:00 +12°C° 0 mm 1 m/s 657 mmHg 40%
18:00 +11°C° 0 mm 1 m/s 656 mmHg 42%
19:00 +8°C° 0 mm 2 m/s 656 mmHg 45%
20:00 +7°C° 0 mm 2 m/s 656 mmHg 47%
21:00 +7°C° 0 mm 2 m/s 656 mmHg 47%
22:00 +5°C° 0 mm 3 m/s 656 mmHg 47%
23:00 +5°C° 0 mm 3 m/s 656 mmHg 47%

26 Janeiro, Terça-feira

Tempo Temperatura Precipitação Vento Pressão Humidade
00:00 +5°C° 0 mm 3 m/s 656 mmHg 46%
01:00 +4°C° 0 mm 3 m/s 656 mmHg 44%
02:00 +4°C° 0 mm 3 m/s 656 mmHg 43%
03:00 +4°C° 0 mm 3 m/s 655 mmHg 43%
04:00 +4°C° 0 mm 3 m/s 655 mmHg 44%
05:00 +4°C° 0 mm 3 m/s 655 mmHg 44%
06:00 +4°C° 0 mm 3 m/s 655 mmHg 44%
07:00 +4°C° 0 mm 3 m/s 656 mmHg 44%
08:00 +4°C° 0 mm 3 m/s 656 mmHg 45%
09:00 +7°C° 0 mm 3 m/s 657 mmHg 40%
10:00 +10°C° 0 mm 2 m/s 657 mmHg 36%
11:00 +13°C° 0 mm 2 m/s 658 mmHg 32%
12:00 +14°C° 0 mm 2 m/s 657 mmHg 31%
13:00 +14°C° 0 mm 1 m/s 657 mmHg 30%
14:00 +15°C° 0 mm 1 m/s 657 mmHg 29%
15:00 +14°C° 0 mm 1 m/s 657 mmHg 33%
16:00 +13°C° 0 mm 1 m/s 656 mmHg 36%
17:00 +12°C° 0 mm 1 m/s 656 mmHg 40%
18:00 +11°C° 0 mm 1 m/s 656 mmHg 42%
19:00 +8°C° 0 mm 2 m/s 656 mmHg 44%
20:00 +7°C° 0 mm 2 m/s 656 mmHg 46%
21:00 +6°C° 0 mm 2 m/s 656 mmHg 46%
22:00 +5°C° 0 mm 3 m/s 656 mmHg 46%
23:00 +4°C° 0 mm 3 m/s 656 mmHg 46%

27 Janeiro, Quarta-feira

Tempo Temperatura Precipitação Vento Pressão Humidade
00:00 +4°C° 0 mm 3 m/s 656 mmHg 44%
01:00 +4°C° 0 mm 3 m/s 655 mmHg 43%
02:00 +4°C° 0 mm 3 m/s 655 mmHg 42%
03:00 +3°C° 0 mm 3 m/s 655 mmHg 42%
04:00 +3°C° 0 mm 3 m/s 655 mmHg 42%
05:00 +3°C° 0 mm 3 m/s 655 mmHg 43%
06:00 +3°C° 0 mm 3 m/s 655 mmHg 42%
07:00 +3°C° 0 mm 3 m/s 655 mmHg 42%
08:00 +3°C° 0 mm 3 m/s 656 mmHg 42%
09:00 +7°C° 0 mm 2 m/s 656 mmHg 37%
10:00 +9°C° 0 mm 2 m/s 657 mmHg 32%
11:00 +13°C° 0 mm 1 m/s 657 mmHg 28%
12:00 +13°C° 0 mm 1 m/s 657 mmHg 26%
13:00 +14°C° 0 mm 1 m/s 657 mmHg 25%
14:00 +15°C° 0 mm 1 m/s 656 mmHg 23%
15:00 +14°C° 0 mm 1 m/s 656 mmHg 27%
16:00 +13°C° 0 mm 1 m/s 656 mmHg 31%
17:00 +12°C° 0 mm 1 m/s 655 mmHg 35%
18:00 +10°C° 0 mm 1 m/s 655 mmHg 37%
19:00 +9°C° 0 mm 1 m/s 655 mmHg 39%
20:00 +6°C° 0 mm 2 m/s 655 mmHg 41%
21:00 +6°C° 0 mm 2 m/s 656 mmHg 42%
22:00 +5°C° 0 mm 2 m/s 656 mmHg 42%
23:00 +5°C° 0 mm 2 m/s 656 mmHg 43%

28 Janeiro, Quinta-feira

Tempo Temperatura Precipitação Vento Pressão Humidade
00:00 +4°C° 0 mm 3 m/s 656 mmHg 42%
01:00 +3°C° 0 mm 3 m/s 655 mmHg 41%
02:00 +3°C° 0 mm 3 m/s 655 mmHg 40%
03:00 +3°C° 0 mm 3 m/s 655 mmHg 40%
04:00 +3°C° 0 mm 3 m/s 655 mmHg 39%
05:00 +2°C° 0 mm 3 m/s 655 mmHg 39%
06:00 +3°C° 0 mm 3 m/s 655 mmHg 39%
07:00 +3°C° 0 mm 3 m/s 656 mmHg 38%
08:00 +3°C° 0 mm 3 m/s 656 mmHg 38%
09:00 +7°C° 0 mm 2 m/s 657 mmHg 33%
10:00 +9°C° 0 mm 2 m/s 657 mmHg 29%
11:00 +13°C° 0 mm 1 m/s 658 mmHg 25%
12:00 +13°C° 0 mm 1 m/s 658 mmHg 24%
13:00 +14°C° 0 mm 1 m/s 658 mmHg 22%
14:00 +15°C° 0 mm 1 m/s 657 mmHg 21%
15:00 +14°C° 0 mm 1 m/s 657 mmHg 25%
16:00 +13°C° 0 mm 1 m/s 657 mmHg 29%
17:00 +12°C° 0 mm 1 m/s 656 mmHg 33%
18:00 +10°C° 0 mm 1 m/s 656 mmHg 35%
19:00 +9°C° 0 mm 1 m/s 657 mmHg 36%
20:00 +7°C° 0 mm 2 m/s 657 mmHg 38%
21:00 +6°C° 0 mm 2 m/s 657 mmHg 39%
22:00 +6°C° 0 mm 2 m/s 657 mmHg 40%
23:00 +5°C° 0 mm 2 m/s 657 mmHg 41%
Mostrar mais